BCS4214 EDDP-EDDS

Flight info

Callsign BCS4214
Flight time 0h 47m
Altitude 26000
Route NEVKO2S NEVKO Q243 BAMKI Z94 GORKO/N0403F240 T726 TOSTU/N0396F230 T726 LBU
Aircraft B738/M-SDE2E3FGHIRWXY/LB1

Departure

Time 2026-05-04 19:30
Airport Leipzig/Halle Airport (EDDP)

Arrival

Time 2026-05-04 20:17
Airport Stuttgart Airport (EDDS)
Time Latitude Longitude Altitude Speed Heading
2026-05-04 19:00 51.40818 12.23892 464 ft 0 kts 85°
2026-05-04 19:18 51.40817 12.23881 464 ft 4 kts 86°
2026-05-04 19:18 51.40818 12.23838 463 ft 4 kts 95°
2026-05-04 19:18 51.40819 12.23796 464 ft 4 kts 74°
2026-05-04 19:19 51.40808 12.23773 461 ft 3 kts 357°
2026-05-04 19:19 51.40787 12.23775 463 ft 4 kts 355°
2026-05-04 19:19 51.40778 12.23776 463 ft 1 kts 355°
2026-05-04 19:25 51.40810 12.23772 464 ft 6 kts 355°
2026-05-04 19:25 51.40849 12.23766 465 ft 6 kts 355°
2026-05-04 19:25 51.40888 12.23761 465 ft 6 kts 356°
2026-05-04 19:25 51.40957 12.23754 466 ft 13 kts 355°
2026-05-04 19:26 51.41044 12.23767 469 ft 13 kts 46°
2026-05-04 19:26 51.41062 12.23912 465 ft 14 kts 86°
2026-05-04 19:26 51.41069 12.24068 465 ft 14 kts 85°
2026-05-04 19:26 51.41077 12.24216 465 ft 13 kts 84°
2026-05-04 19:27 51.41084 12.24362 464 ft 14 kts 86°
2026-05-04 19:27 51.41094 12.24529 466 ft 15 kts 69°
2026-05-04 19:27 51.41184 12.24591 467 ft 15 kts 14°
2026-05-04 19:27 51.41236 12.24611 468 ft 0 kts 13°
2026-05-04 19:28 51.41237 12.24611 468 ft 1 kts 13°
2026-05-04 19:28 51.41289 12.24630 469 ft 11 kts 13°
2026-05-04 19:28 51.41316 12.24641 471 ft 1 kts 13°
2026-05-04 19:28 51.41326 12.24642 472 ft 2 kts 359°
2026-05-04 19:29 51.41351 12.24542 470 ft 21 kts 266°
2026-05-04 19:29 51.41326 12.23965 466 ft 87 kts 265°
2026-05-04 19:29 51.41265 12.22673 459 ft 145 kts 266°
2026-05-04 19:29 51.41177 12.20853 729 ft 171 kts 265°
2026-05-04 19:30 51.41094 12.18909 1315 ft 185 kts 266°
2026-05-04 19:30 51.40999 12.16795 1929 ft 193 kts 267°
2026-05-04 19:30 51.40896 12.14581 2318 ft 212 kts 266°
2026-05-04 19:30 51.40776 12.12113 2510 ft 230 kts 266°
2026-05-04 19:31 51.40645 12.09494 2813 ft 240 kts 266°
2026-05-04 19:31 51.40509 12.06799 3253 ft 244 kts 266°
2026-05-04 19:31 51.40366 12.04043 3567 ft 257 kts 265°
2026-05-04 19:31 51.40214 12.01138 4005 ft 266 kts 265°
2026-05-04 19:32 51.40057 11.98168 4789 ft 266 kts 264°
2026-05-04 19:32 51.39825 11.95258 5569 ft 264 kts 252°
2026-05-04 19:32 51.38933 11.92718 6373 ft 261 kts 227°
2026-05-04 19:32 51.37514 11.90933 7125 ft 262 kts 211°
2026-05-04 19:33 51.35927 11.89468 7851 ft 264 kts 210°
2026-05-04 19:33 51.34321 11.88023 8611 ft 266 kts 210°
2026-05-04 19:33 51.32705 11.86561 9395 ft 268 kts 210°
2026-05-04 19:33 51.31080 11.85076 10154 ft 271 kts 210°
2026-05-04 19:34 51.29386 11.83518 10433 ft 292 kts 210°
2026-05-04 19:34 51.27564 11.81839 10615 ft 315 kts 210°
2026-05-04 19:34 51.25602 11.80027 10828 ft 334 kts 211°
2026-05-04 19:34 51.23658 11.77930 11329 ft 342 kts 217°
2026-05-04 19:35 51.21761 11.75561 11979 ft 347 kts 218°
2026-05-04 19:35 51.19888 11.73142 12789 ft 347 kts 219°
2026-05-04 19:35 51.18007 11.70714 13509 ft 351 kts 219°
2026-05-04 19:35 51.16083 11.68254 14135 ft 357 kts 218°
2026-05-04 19:36 51.14135 11.65787 14826 ft 359 kts 218°
2026-05-04 19:36 51.12164 11.63312 15543 ft 362 kts 218°
2026-05-04 19:36 51.10175 11.60827 16212 ft 365 kts 218°
2026-05-04 19:36 51.08168 11.58326 16884 ft 369 kts 218°
2026-05-04 19:37 51.06140 11.55807 17545 ft 372 kts 218°
2026-05-04 19:37 51.04087 11.53260 18196 ft 375 kts 218°
2026-05-04 19:37 51.02718 11.51563 18576 ft 378 kts 218°
2026-05-04 19:37 51.00636 11.48986 19122 ft 381 kts 219°
2026-05-04 19:38 50.98533 11.46386 19667 ft 385 kts 218°
2026-05-04 19:38 50.96414 11.43768 20221 ft 388 kts 219°
2026-05-04 19:38 50.94286 11.41142 20786 ft 390 kts 219°
2026-05-04 19:38 50.92134 11.38489 21337 ft 393 kts 219°
2026-05-04 19:39 50.89952 11.35803 21864 ft 396 kts 219°
2026-05-04 19:39 50.87787 11.33141 22409 ft 398 kts 219°
2026-05-04 19:39 50.85628 11.30382 22925 ft 400 kts 224°
2026-05-04 19:39 50.83816 11.27042 23411 ft 402 kts 233°
2026-05-04 19:40 50.82143 11.23464 23865 ft 405 kts 234°
2026-05-04 19:40 50.80469 11.19870 24352 ft 405 kts 233°
2026-05-04 19:40 50.78789 11.16328 24951 ft 402 kts 233°
2026-05-04 19:40 50.77103 11.12834 25548 ft 399 kts 232°
2026-05-04 19:41 50.75410 11.09364 25958 ft 400 kts 232°
2026-05-04 19:41 50.73725 11.05925 25965 ft 397 kts 232°
2026-05-04 19:41 50.71930 11.02574 25976 ft 399 kts 226°
2026-05-04 19:41 50.69838 10.99694 25979 ft 400 kts 217°
2026-05-04 19:42 50.67550 10.97205 25991 ft 400 kts 216°
2026-05-04 19:42 50.65250 10.94734 25985 ft 400 kts 216°
2026-05-04 19:42 50.62956 10.92256 25989 ft 400 kts 216°
2026-05-04 19:42 50.60667 10.89764 25985 ft 400 kts 216°
2026-05-04 19:43 50.58386 10.87269 25995 ft 400 kts 216°
2026-05-04 19:43 50.56099 10.84765 25990 ft 400 kts 216°
2026-05-04 19:43 50.53810 10.82262 25992 ft 400 kts 216°
2026-05-04 19:43 50.51528 10.79775 25987 ft 400 kts 216°
2026-05-04 19:44 50.49235 10.77294 25984 ft 400 kts 216°
2026-05-04 19:44 50.46938 10.74813 25979 ft 400 kts 216°
2026-05-04 19:44 50.44645 10.72338 25983 ft 400 kts 216°
2026-05-04 19:44 50.42353 10.69862 25978 ft 400 kts 216°
2026-05-04 19:45 50.40072 10.67384 25997 ft 399 kts 216°
2026-05-04 19:45 50.37784 10.64896 25975 ft 399 kts 215°
2026-05-04 19:45 50.35503 10.62422 25972 ft 400 kts 215°
2026-05-04 19:45 50.33224 10.59959 25975 ft 400 kts 215°
2026-05-04 19:46 50.30948 10.57520 25979 ft 400 kts 215°
2026-05-04 19:46 50.28625 10.55040 25975 ft 400 kts 215°
2026-05-04 19:46 50.26349 10.52613 25977 ft 400 kts 215°
2026-05-04 19:46 50.24073 10.50022 25968 ft 400 kts 221°
2026-05-04 19:47 50.22127 10.46994 25976 ft 400 kts 229°
2026-05-04 19:47 50.20460 10.43523 25967 ft 401 kts 238°
2026-05-04 19:47 50.19061 10.39806 25727 ft 393 kts 239°
2026-05-04 19:47 50.17691 10.36187 25475 ft 383 kts 238°
2026-05-04 19:48 50.16310 10.32642 25219 ft 374 kts 237°
2026-05-04 19:48 50.14977 10.29264 24983 ft 369 kts 237°
2026-05-04 19:48 50.13626 10.25851 24745 ft 370 kts 237°
2026-05-04 19:48 50.12271 10.22432 24513 ft 371 kts 237°
2026-05-04 19:49 50.10918 10.19017 24281 ft 371 kts 237°
2026-05-04 19:49 50.09371 10.15842 24133 ft 368 kts 221°
2026-05-04 19:49 50.07217 10.13651 24044 ft 373 kts 205°
2026-05-04 19:49 50.04763 10.12414 23995 ft 371 kts 192°
2026-05-04 19:50 50.02218 10.11823 23981 ft 369 kts 189°
2026-05-04 19:50 49.99663 10.11321 23973 ft 370 kts 189°
2026-05-04 19:50 49.97107 10.10829 23961 ft 371 kts 189°
2026-05-04 19:50 49.94536 10.10321 23960 ft 372 kts 189°
2026-05-04 19:51 49.91976 10.09800 23964 ft 372 kts 189°
2026-05-04 19:51 49.89409 10.09265 23969 ft 372 kts 189°
2026-05-04 19:51 49.86839 10.08723 23965 ft 372 kts 190°
2026-05-04 19:51 49.84269 10.08178 23965 ft 373 kts 190°
2026-05-04 19:52 49.81705 10.07633 23966 ft 372 kts 190°
2026-05-04 19:52 49.79141 10.07088 23966 ft 372 kts 190°
2026-05-04 19:52 49.76543 10.06536 23963 ft 372 kts 190°
2026-05-04 19:52 49.73974 10.05992 23958 ft 372 kts 190°
2026-05-04 19:53 49.71445 10.05456 23963 ft 373 kts 190°
2026-05-04 19:53 49.68874 10.04913 23956 ft 373 kts 190°
2026-05-04 19:53 49.66300 10.04341 23856 ft 372 kts 190°
2026-05-04 19:53 49.63747 10.03757 23873 ft 370 kts 191°
2026-05-04 19:54 49.61207 10.03177 23827 ft 370 kts 190°
2026-05-04 19:54 49.58638 10.02593 23577 ft 372 kts 190°
2026-05-04 19:54 49.56099 10.02020 23243 ft 367 kts 190°
2026-05-04 19:54 49.53581 10.01453 22793 ft 364 kts 190°
2026-05-04 19:55 49.51080 10.00890 22280 ft 362 kts 190°
2026-05-04 19:55 49.48589 10.00330 21796 ft 361 kts 190°
2026-05-04 19:55 49.46111 9.99773 21337 ft 358 kts 190°
2026-05-04 19:55 49.43654 9.99221 20892 ft 356 kts 190°
2026-05-04 19:56 49.41215 9.98674 20459 ft 353 kts 190°
2026-05-04 19:56 49.38785 9.98129 20025 ft 351 kts 190°
2026-05-04 19:56 49.36381 9.97590 19605 ft 349 kts 190°
2026-05-04 19:56 49.33974 9.97052 19171 ft 347 kts 190°
2026-05-04 19:57 49.31591 9.96519 18759 ft 345 kts 189°
2026-05-04 19:57 49.29244 9.95995 18294 ft 337 kts 189°
2026-05-04 19:57 49.26938 9.95480 17725 ft 331 kts 189°
2026-05-04 19:57 49.24681 9.94977 17309 ft 326 kts 189°
2026-05-04 19:58 49.22439 9.94477 16898 ft 325 kts 189°
2026-05-04 19:58 49.20243 9.93986 16511 ft 323 kts 191°
2026-05-04 19:58 49.18159 9.92906 16102 ft 320 kts 212°
2026-05-04 19:58 49.16478 9.90679 15890 ft 314 kts 229°
2026-05-04 19:59 49.15350 9.87830 15699 ft 318 kts 245°
2026-05-04 19:59 49.14546 9.84666 15539 ft 329 kts 248°
2026-05-04 19:59 49.13752 9.81308 15327 ft 334 kts 249°
2026-05-04 19:59 49.12971 9.77966 15121 ft 333 kts 249°
2026-05-04 20:00 49.12190 9.74649 14910 ft 331 kts 248°
2026-05-04 20:00 49.11416 9.71404 14725 ft 330 kts 248°
2026-05-04 20:00 49.10625 9.68122 14531 ft 329 kts 248°
2026-05-04 20:00 49.09833 9.64857 14346 ft 328 kts 248°
2026-05-04 20:01 49.09039 9.61595 14148 ft 328 kts 248°
2026-05-04 20:01 49.08244 9.58336 13965 ft 328 kts 248°
2026-05-04 20:01 49.07448 9.55075 13766 ft 328 kts 248°
2026-05-04 20:01 49.06649 9.51815 13554 ft 328 kts 248°
2026-05-04 20:02 49.05831 9.48563 13340 ft 327 kts 243°
2026-05-04 20:02 49.04593 9.45707 13131 ft 323 kts 225°
2026-05-04 20:02 49.02870 9.43548 12962 ft 320 kts 211°
2026-05-04 20:02 49.00926 9.41900 12775 ft 319 kts 207°
2026-05-04 20:03 48.98971 9.40329 12582 ft 318 kts 207°
2026-05-04 20:03 48.97033 9.38752 12389 ft 317 kts 207°
2026-05-04 20:03 48.95097 9.37156 12204 ft 316 kts 208°
2026-05-04 20:03 48.93159 9.35597 12011 ft 315 kts 202°
2026-05-04 20:04 48.91031 9.34925 11824 ft 312 kts 180°
2026-05-04 20:04 48.88903 9.35437 11651 ft 312 kts 162°
2026-05-04 20:04 48.86893 9.36651 11478 ft 311 kts 158°
2026-05-04 20:04 48.84913 9.37993 11289 ft 311 kts 152°
2026-05-04 20:05 48.83304 9.40176 11102 ft 315 kts 128°
2026-05-04 20:05 48.82371 9.43173 10930 ft 319 kts 107°
2026-05-04 20:05 48.82171 9.46531 10736 ft 324 kts 86°
2026-05-04 20:05 48.82651 9.49884 10418 ft 328 kts 77°
2026-05-04 20:06 48.83276 9.53198 9971 ft 323 kts 76°
2026-05-04 20:06 48.83910 9.56417 9551 ft 313 kts 76°
2026-05-04 20:06 48.84517 9.59542 9125 ft 306 kts 76°
2026-05-04 20:06 48.85109 9.62649 8689 ft 307 kts 76°
2026-05-04 20:07 48.85693 9.65773 8196 ft 309 kts 76°
2026-05-04 20:07 48.86278 9.68928 7727 ft 311 kts 76°
2026-05-04 20:07 48.86864 9.72107 7257 ft 313 kts 76°
2026-05-04 20:07 48.87449 9.75297 6795 ft 314 kts 76°
2026-05-04 20:08 48.87994 9.78509 6340 ft 314 kts 82°
2026-05-04 20:08 48.87887 9.81731 5823 ft 303 kts 110°
2026-05-04 20:08 48.86765 9.84315 5367 ft 291 kts 141°
2026-05-04 20:08 48.84984 9.85565 4982 ft 281 kts 172°
2026-05-04 20:09 48.83092 9.85177 4600 ft 275 kts 205°
2026-05-04 20:09 48.81667 9.83319 4233 ft 270 kts 236°
2026-05-04 20:09 48.80696 9.80958 4018 ft 258 kts 236°
2026-05-04 20:09 48.79563 9.78927 4005 ft 245 kts 226°
2026-05-04 20:10 48.78435 9.77057 3991 ft 238 kts 234°
2026-05-04 20:10 48.77575 9.74926 4008 ft 238 kts 246°
2026-05-04 20:10 48.77025 9.72564 4011 ft 238 kts 258°
2026-05-04 20:10 48.76875 9.70110 3997 ft 237 kts 281°
2026-05-04 20:11 48.77167 9.67665 4003 ft 238 kts 271°
2026-05-04 20:11 48.76918 9.65191 4021 ft 238 kts 261°
2026-05-04 20:11 48.76622 9.62729 4025 ft 238 kts 259°
2026-05-04 20:11 48.76248 9.60313 3999 ft 231 kts 256°
2026-05-04 20:12 48.75836 9.58063 4009 ft 212 kts 255°
2026-05-04 20:12 48.75436 9.55968 4011 ft 205 kts 255°
2026-05-04 20:12 48.75036 9.53893 4015 ft 206 kts 255°
2026-05-04 20:12 48.74634 9.51799 4035 ft 209 kts 255°
2026-05-04 20:13 48.74226 9.49678 4006 ft 209 kts 255°
2026-05-04 20:13 48.73822 9.47573 4012 ft 208 kts 254°
2026-05-04 20:13 48.73418 9.45465 3957 ft 210 kts 255°
2026-05-04 20:13 48.73010 9.43333 3726 ft 211 kts 255°
2026-05-04 20:14 48.72608 9.41234 3440 ft 204 kts 256°
2026-05-04 20:14 48.72223 9.39219 3188 ft 194 kts 256°
2026-05-04 20:14 48.71857 9.37299 2924 ft 186 kts 256°
2026-05-04 20:14 48.71510 9.35481 2684 ft 172 kts 257°
2026-05-04 20:15 48.71198 9.33843 2492 ft 153 kts 257°
2026-05-04 20:15 48.70917 9.32369 2274 ft 143 kts 257°
2026-05-04 20:15 48.70647 9.30962 2099 ft 138 kts 255°
2026-05-04 20:15 48.70353 9.29561 1897 ft 142 kts 256°
2026-05-04 20:16 48.70105 9.28130 1741 ft 140 kts 257°
2026-05-04 20:16 48.69843 9.26715 1562 ft 138 kts 255°
2026-05-04 20:16 48.69573 9.25344 1384 ft 138 kts 256°
2026-05-04 20:16 48.69316 9.23960 1302 ft 136 kts 255°
2026-05-04 20:17 48.69069 9.22652 1286 ft 119 kts 257°
2026-05-04 20:17 48.68889 9.21668 1289 ft 76 kts 254°
2026-05-04 20:17 48.68782 9.21110 1286 ft 35 kts 253°
2026-05-04 20:17 48.68747 9.20926 1284 ft 15 kts 254°
2026-05-04 20:18 48.68702 9.20685 1289 ft 31 kts 253°
2026-05-04 20:18 48.68644 9.20379 1289 ft 29 kts 253°
2026-05-04 20:18 48.68563 9.20086 1286 ft 25 kts 217°
2026-05-04 20:18 48.68432 9.20091 1286 ft 10 kts 164°
2026-05-04 20:19 48.68407 9.20102 1287 ft 0 kts 164°
2026-05-04 20:19 48.68405 9.20103 1287 ft 1 kts 164°
2026-05-04 20:19 48.68376 9.20116 1286 ft 6 kts 157°
2026-05-04 20:20 48.68358 9.20170 1285 ft 7 kts 85°
2026-05-04 20:20 48.68374 9.20263 1287 ft 10 kts 91°
2026-05-04 20:20 48.68346 9.20301 1287 ft 0 kts 175°
2026-05-04 20:20 48.68344 9.20302 1288 ft 1 kts 171°
2026-05-04 20:21 48.68323 9.20311 1287 ft 2 kts 165°
2026-05-04 20:21 48.68322 9.20311 1287 ft 0 kts 165°
2026-05-04 20:21 48.68320 9.20312 1287 ft 0 kts 165°